When you browse on this site, cookies collect data to enhance your experience and personalize the content and advertising you see.
Visit our Privacy Policy to learn more. By continuing to use the site, you agree to this use of cookies and data.
  • In Schweiz
  • Länderverzeichnis
  • Für 7 Tage
  • Wassertemperatur
  • Wetterkarte
  • Widgets
  • user-avatar
    Anmelden

    Stündliche Wetter Linares

    Heute, 3 Juni, Mittwoch

    Zeit Temperatur Niederschläge Wind Luftdruck Luftfeuchtigkeit
    00:00 +20°C° 0 mm 2 m/S 724 mmHg 62%
    01:00 +20°C° 0 mm 2 m/S 724 mmHg 67%
    02:00 +20°C° 0 mm 1 m/S 724 mmHg 72%
    03:00 +19°C° 0 mm 1 m/S 723 mmHg 76%
    04:00 +19°C° 0 mm 1 m/S 723 mmHg 77%
    05:00 +19°C° 0 mm 1 m/S 723 mmHg 77%
    06:00 +19°C° 0 mm 1 m/S 723 mmHg 78%
    07:00 +21°C° 0 mm 1 m/S 723 mmHg 69%
    08:00 +23°C° 0 mm 2 m/S 723 mmHg 60%
    09:00 +25°C° 0 mm 3 m/S 723 mmHg 52%
    10:00 +27°C° 0 mm 3 m/S 723 mmHg 44%
    11:00 +29°C° 0 mm 4 m/S 723 mmHg 37%
    12:00 +30°C° 0 mm 5 m/S 723 mmHg 30%
    13:00 +32°C° 0 mm 6 m/S 722 mmHg 29%
    14:00 +32°C° 0 mm 6 m/S 722 mmHg 27%
    15:00 +33°C° 0 mm 6 m/S 721 mmHg 26%
    16:00 +32°C° 0 mm 6 m/S 721 mmHg 28%
    17:00 +30°C° 0 mm 6 m/S 721 mmHg 30%
    18:00 +30°C° 0 mm 6 m/S 721 mmHg 32%
    19:00 +28°C° 0 mm 6 m/S 721 mmHg 39%
    20:00 +26°C° 0 mm 6 m/S 721 mmHg 47%
    21:00 +23°C° 0 mm 6 m/S 721 mmHg 54%
    22:00 +21°C° 0 mm 5 m/S 721 mmHg 60%
    23:00 +20°C° 0 mm 5 m/S 721 mmHg 66%

    Morgen, 4 Juni, Donnerstag

    Zeit Temperatur Niederschläge Wind Luftdruck Luftfeuchtigkeit
    00:00 +19°C° 0 mm 5 m/S 721 mmHg 71%
    01:00 +18°C° 0 mm 4 m/S 720 mmHg 75%
    02:00 +18°C° 0 mm 4 m/S 720 mmHg 79%
    03:00 +17°C° 0 mm 3 m/S 720 mmHg 83%
    04:00 +17°C° 0 mm 4 m/S 720 mmHg 83%
    05:00 +17°C° 0 mm 4 m/S 720 mmHg 83%
    06:00 +18°C° 0 mm 4 m/S 720 mmHg 83%
    07:00 +19°C° 0 mm 5 m/S 720 mmHg 76%
    08:00 +20°C° 0 mm 6 m/S 721 mmHg 70%
    09:00 +21°C° 0 mm 6 m/S 721 mmHg 64%
    10:00 +22°C° 0 mm 6 m/S 721 mmHg 59%
    11:00 +23°C° 0 mm 6 m/S 721 mmHg 55%
    12:00 +24°C° 0 mm 6 m/S 722 mmHg 50%
    13:00 +24°C° 0.3 mm 7 m/S 721 mmHg 49%
    14:00 +26°C° 0.3 mm 7 m/S 721 mmHg 49%
    15:00 +26°C° 0.3 mm 7 m/S 721 mmHg 48%
    16:00 +24°C° 0.6 mm 7 m/S 721 mmHg 52%
    17:00 +24°C° 0.6 mm 7 m/S 721 mmHg 56%
    18:00 +23°C° 0.6 mm 6 m/S 721 mmHg 59%
    19:00 +22°C° 0.6 mm 5 m/S 722 mmHg 66%
    20:00 +21°C° 0.6 mm 5 m/S 722 mmHg 73%
    21:00 +19°C° 0.6 mm 4 m/S 723 mmHg 80%
    22:00 +19°C° 0.1 mm 4 m/S 723 mmHg 82%
    23:00 +18°C° 0.1 mm 4 m/S 723 mmHg 84%

    übermorgen, 5 Juni, Freitag

    Zeit Temperatur Niederschläge Wind Luftdruck Luftfeuchtigkeit
    00:00 +17°C° 0.1 mm 4 m/S 723 mmHg 86%
    01:00 +18°C° 0 mm 3 m/S 723 mmHg 85%
    02:00 +18°C° 0 mm 3 m/S 723 mmHg 85%
    03:00 +18°C° 0 mm 3 m/S 723 mmHg 85%
    04:00 +18°C° 0 mm 2 m/S 723 mmHg 86%
    05:00 +18°C° 0 mm 2 m/S 723 mmHg 86%
    06:00 +18°C° 0 mm 2 m/S 723 mmHg 86%
    07:00 +19°C° 0 mm 2 m/S 723 mmHg 79%
    08:00 +21°C° 0 mm 3 m/S 724 mmHg 71%
    09:00 +22°C° 0 mm 3 m/S 724 mmHg 64%
    10:00 +23°C° 0 mm 4 m/S 724 mmHg 59%
    11:00 +26°C° 0 mm 4 m/S 724 mmHg 54%
    12:00 +27°C° 0 mm 5 m/S 724 mmHg 48%
    13:00 +28°C° 0 mm 5 m/S 724 mmHg 45%
    14:00 +28°C° 0 mm 5 m/S 724 mmHg 42%
    15:00 +29°C° 0 mm 5 m/S 724 mmHg 39%
    16:00 +29°C° 0 mm 4 m/S 723 mmHg 38%
    17:00 +29°C° 0 mm 4 m/S 723 mmHg 37%
    18:00 +29°C° 0 mm 4 m/S 723 mmHg 36%
    19:00 +27°C° 0 mm 4 m/S 724 mmHg 40%
    20:00 +25°C° 0 mm 4 m/S 724 mmHg 44%
    21:00 +22°C° 0 mm 4 m/S 724 mmHg 47%
    22:00 +21°C° 0 mm 3 m/S 724 mmHg 53%
    23:00 +20°C° 0 mm 3 m/S 724 mmHg 59%

    6 Juni, Samstag

    Zeit Temperatur Niederschläge Wind Luftdruck Luftfeuchtigkeit
    00:00 +18°C° 0 mm 3 m/S 724 mmHg 65%
    01:00 +18°C° 0 mm 2 m/S 724 mmHg 70%
    02:00 +18°C° 0 mm 1 m/S 724 mmHg 75%
    03:00 +16°C° 0 mm 1 m/S 724 mmHg 79%
    04:00 +15°C° 0 mm 0 m/S 724 mmHg 78%
    05:00 +16°C° 0 mm 0 m/S 724 mmHg 77%
    06:00 +16°C° 0 mm 0 m/S 724 mmHg 75%
    07:00 +18°C° 0 mm 0 m/S 724 mmHg 67%
    08:00 +22°C° 0 mm 1 m/S 724 mmHg 58%
    09:00 +25°C° 0 mm 1 m/S 725 mmHg 49%
    10:00 +26°C° 0 mm 2 m/S 724 mmHg 42%
    11:00 +28°C° 0 mm 3 m/S 724 mmHg 34%
    12:00 +30°C° 0 mm 4 m/S 724 mmHg 27%
    13:00 +32°C° 0 mm 5 m/S 724 mmHg 26%
    14:00 +32°C° 0 mm 6 m/S 723 mmHg 25%
    15:00 +33°C° 0 mm 7 m/S 723 mmHg 23%
    16:00 +32°C° 0 mm 6 m/S 723 mmHg 24%
    17:00 +32°C° 0 mm 6 m/S 723 mmHg 26%
    18:00 +30°C° 0 mm 6 m/S 723 mmHg 27%
    19:00 +28°C° 0 mm 5 m/S 723 mmHg 30%
    20:00 +26°C° 0 mm 4 m/S 723 mmHg 34%
    21:00 +24°C° 0 mm 3 m/S 723 mmHg 38%
    22:00 +22°C° 0 mm 3 m/S 723 mmHg 40%
    23:00 +21°C° 0 mm 3 m/S 723 mmHg 42%

    7 Juni, Sonntag

    Zeit Temperatur Niederschläge Wind Luftdruck Luftfeuchtigkeit
    00:00 +20°C° 0 mm 3 m/S 723 mmHg 44%
    01:00 +19°C° 0 mm 3 m/S 723 mmHg 49%
    02:00 +18°C° 0 mm 2 m/S 723 mmHg 54%
    03:00 +17°C° 0 mm 2 m/S 723 mmHg 59%
    04:00 +17°C° 0 mm 2 m/S 723 mmHg 62%
    05:00 +17°C° 0 mm 2 m/S 723 mmHg 65%
    06:00 +18°C° 0 mm 1 m/S 724 mmHg 68%
    07:00 +19°C° 0 mm 2 m/S 724 mmHg 61%
    08:00 +21°C° 0 mm 2 m/S 724 mmHg 54%
    09:00 +24°C° 0 mm 3 m/S 725 mmHg 47%
    10:00 +25°C° 0 mm 3 m/S 725 mmHg 43%
    11:00 +27°C° 0 mm 4 m/S 725 mmHg 39%
    12:00 +28°C° 0 mm 4 m/S 725 mmHg 36%
    13:00 +28°C° 0 mm 4 m/S 724 mmHg 35%
    14:00 +29°C° 0 mm 5 m/S 724 mmHg 34%
    15:00 +29°C° 0 mm 5 m/S 724 mmHg 33%
    16:00 +29°C° 0 mm 5 m/S 724 mmHg 34%
    17:00 +28°C° 0 mm 5 m/S 724 mmHg 35%
    18:00 +28°C° 0 mm 5 m/S 724 mmHg 36%
    19:00 +27°C° 0 mm 4 m/S 724 mmHg 39%
    20:00 +25°C° 0 mm 4 m/S 724 mmHg 43%
    21:00 +24°C° 0 mm 3 m/S 725 mmHg 47%
    22:00 +22°C° 0 mm 3 m/S 724 mmHg 53%
    23:00 +20°C° 0 mm 3 m/S 724 mmHg 59%

    8 Juni, Montag

    Zeit Temperatur Niederschläge Wind Luftdruck Luftfeuchtigkeit
    00:00 +19°C° 0 mm 3 m/S 724 mmHg 65%
    01:00 +18°C° 0 mm 2 m/S 724 mmHg 69%
    02:00 +18°C° 0 mm 1 m/S 724 mmHg 73%
    03:00 +18°C° 0 mm 1 m/S 723 mmHg 76%
    04:00 +18°C° 0 mm 1 m/S 724 mmHg 76%
    05:00 +16°C° 0 mm 0 m/S 724 mmHg 76%
    06:00 +16°C° 0 mm 0 m/S 724 mmHg 75%
    07:00 +20°C° 0 mm 1 m/S 724 mmHg 68%
    08:00 +22°C° 0 mm 1 m/S 724 mmHg 61%
    09:00 +24°C° 0 mm 1 m/S 725 mmHg 53%
    10:00 +26°C° 0.1 mm 2 m/S 725 mmHg 47%
    11:00 +27°C° 0.1 mm 2 m/S 725 mmHg 41%
    12:00 +29°C° 0.1 mm 2 m/S 725 mmHg 36%
    13:00 +29°C° 0.1 mm 3 m/S 724 mmHg 34%
    14:00 +30°C° 0.1 mm 4 m/S 724 mmHg 33%
    15:00 +30°C° 0.1 mm 4 m/S 724 mmHg 32%
    16:00 +29°C° 0 mm 4 m/S 724 mmHg 34%
    17:00 +29°C° 0 mm 4 m/S 724 mmHg 36%
    18:00 +28°C° 0 mm 3 m/S 724 mmHg 38%
    19:00 +26°C° 0.1 mm 3 m/S 724 mmHg 44%
    20:00 +25°C° 0.1 mm 2 m/S 724 mmHg 49%
    21:00 +23°C° 0.1 mm 1 m/S 724 mmHg 55%
    22:00 +22°C° 0.1 mm 1 m/S 724 mmHg 57%
    23:00 +21°C° 0.1 mm 1 m/S 724 mmHg 60%
    Mehr zeigen